SCP
0 0 -0 -0 -0 -0 -0 -0 -0 -0 -0 -0 -0 0 0 0 0 0 -0 -0 -0 -0 -0 -0 -0 -0 -0 -0 -0 -0 -0 -0 -0
-0 -0 -0 -0 -0 -0 -0 -0 -0 -0 -0 -0 0 0 0 0 0 0 -0 -0 -0 -0 -0 -0 -0 -0 -0 -0 -0 -0 -0 -0 -0
0 -0 0 -0 -0 -0 -0 -0 -0 -0 -0 -0 0 0 0 0 0 0 0 -0 -0 -0 -0 -0 0 -0 -0 -0 -0 -0 -0 -0 -0
0 0 0 0 0 0 0 0 -0 -0 0 0 0 0 0 0 0 0 0 0 0 0 -0 0 0 0 0 -0 -0 -0 -0 -0 -0
0 0 0 0 0 0 0 0 0 0 0 0 0 0 0 0 0 0 0 0 0 0 0 0 0 0 0 0 0 0 0 0 0
0 0 0 0 0 0 0 0 0 0 0 0 0 0 0 0 0 0 0 0 0 0 0 0 0 0 0 0 0 0 0 0 0
0 0 0 0 0 0 0 0 0 0 0 0 0 0 0 0 0 0 0 0 0 0 0 0 0 0 0 0 0 0 0 0 0
0 0 0 0 0 0 0 0 0 0 0 0 0 0 0 0 0 0 0 0 0 0 0 0 0 0 0 0 0 0 0 0 0
0 0 0 0 0 0 0 0 0 0 0 0 0 0 0 0 0 0 0 0 0 0 0 0 0 0 0 0 0 0 0 0 0
0 0 0 0 0 0 0 0 0 0 0 0 0 0 0 0 -0 -0 0 0 0 0 0 0 0 0 0 0 0 0 0 0 0
0 0 0 0 0 0 0 0 0 0 0 0 0 0 0 0 0 -0 0 0 0 0 0 0 0 0 0 0 0 0 0 0 0
0 0 0 0 0 0 0 0 0 0 0 0 0 0 0 0 0 0 0 0 0 0 0 0 0 0 0 0 0 0 0 0 0
0 0 0 0 0 0 0 0 0 0 0 0 0 0 0 0 0 0 0 0 0 0 0 0 0 0 0 0 0 0 0 0 0
0 0 0 0 0 0 0 0 0 0 0 0 0 0 0 0 0 0 0 0 0 0 0 0 0 0 0 0 0 0 0 0 0
0 0 0 0 0 0 0 0 0 0 0 0 0 0 0 0 0 0 0 0 0 0 0 0 0 0 0 0 0 0 0 0 0
0 0 0 0 0 0 0 0 0 0 0 0 0 0 0 0 0 0 0 0 0 0 0 0 0 0 0 0 0 0 0 0 0
0 0 0 0 0 0 0 0 0 0 0 0 0 0 0 0 0 0 0 0 0 0 0 0 0 0 0 0 0 0 0 0 0
0 0 0 0 0 0 0 0 0 0 0 0 0 0 0 0 0 0 0 0 0 0 0 0 0 0 0 0 0 0 0 0 0
0 0 0 0 0 0 0 0 0 0 0 0 0 0 0 0 0 0 0 0 0 0 0 0 0 0 0 0 0 0 0 0 0
0 0 0 0 0 0 0 0 0 0 0 0 0 0 0 0 0 0 0 0 0 0 0 0 0 0 0 0 0 0 0 0 0
Wind_Speed_500mb
16 14 12 14 14 15 17 17 15 14 13 12 13 17 21 28 26 28 29 27 29 30 27 21 19 25 24 22 17 13 12 12 12
17 16 13 13 11 13 15 16 17 16 13 10 11 13 19 23 26 27 28 26 20 24 25 24 20 14 19 21 20 19 13 11 10
7 7 8 7 6 7 10 13 14 14 13 11 10 13 19 21 24 24 24 24 22 19 19 22 21 17 10 13 15 16 19 17 13
4 3 2 2 2 3 5 8 10 11 11 10 12 13 13 17 18 19 20 19 19 18 17 15 19 16 14 7 9 12 11 15 16
2 2 2 2 3 3 4 6 7 8 9 9 9 11 12 11 12 14 15 17 19 18 16 15 10 14 12 10 7 8 11 12 9
11 4 3 3 4 4 5 6 6 8 8 8 9 10 11 11 11 12 12 15 16 18 16 15 11 9 7 8 6 5 7 10 11
9 4 5 8 11 12 14 15 14 14 15 16 16 15 16 16 16 18 17 16 17 18 18 15 13 11 8 6 4 1 2 4 9
8 8 12 15 17 18 18 18 19 21 22 24 25 25 23 20 18 20 20 18 17 15 15 16 15 13 11 9 8 7 7 8 9
13 14 17 19 19 17 17 18 20 22 24 25 26 29 29 27 24 23 20 19 17 15 14 13 16 15 14 12 12 12 13 13 14
17 19 19 18 17 14 13 15 16 17 20 24 27 29 30 30 31 31 28 23 19 15 12 12 12 16 17 15 15 18 17 17 17
19 21 19 15 12 8 7 8 10 15 20 24 27 30 31 32 33 35 34 29 25 21 13 7 7 11 15 16 17 17 18 21 22
20 21 18 12 7 2 2 7 13 18 22 21 24 27 28 30 32 33 31 30 27 23 20 16 14 17 17 18 19 18 17 18 23
22 20 16 11 7 5 8 10 13 16 18 15 20 25 30 31 32 32 30 27 24 24 20 19 19 20 22 24 22 20 22 20 19
23 21 18 14 11 11 13 16 15 14 18 21 20 23 31 32 30 27 20 21 29 29 27 23 25 29 31 28 28 28 26 22 20
25 24 20 17 15 16 18 18 22 25 30 29 24 22 26 30 30 18 10 33 39 33 34 39 45 44 39 38 37 33 30 28 26
26 25 23 21 19 19 20 25 28 24 33 27 24 27 20 19 17 14 19 30 33 40 40 41 45 45 45 43 43 44 40 38 35
27 26 25 23 23 26 28 30 28 27 35 22 26 21 31 12 9 21 32 24 28 30 30 36 39 45 46 48 45 47 48 48 46
26 27 27 30 32 34 37 38 39 29 26 26 20 21 27 36 33 26 35 31 30 32 35 33 36 40 42 49 49 48 47 50 51
29 32 34 37 41 42 43 44 43 40 28 25 23 24 30 33 39 40 42 44 41 39 38 38 37 37 37 44 54 52 50 49 51
33 36 40 43 45 45 43 41 39 35 28 27 27 29 30 35 43 56 47 43 45 46 40 40 41 39 39 40 47 56 52 52 52
Wind_Direction_500mb
102 103 102 91 82 78 74 69 72 83 93 89 62 48 49 58 58 58 51 60 57 52 61 67 68 65 63 70 72 99 113 100 99
104 113 104 98 84 75 73 70 69 78 89 85 62 48 47 60 60 56 51 53 60 65 56 59 65 72 65 62 63 73 101 119 118
110 125 110 101 79 59 58 64 69 71 72 73 57 46 59 58 57 55 47 45 44 47 53 51 53 57 70 67 69 63 70 85 100
165 151 105 88 68 64 64 63 67 69 65 52 47 45 43 55 55 47 41 35 31 35 35 45 48 44 46 61 70 70 72 72 78
162 151 150 127 133 113 83 70 59 55 48 38 30 29 18 18 27 19 12 9 9 9 15 21 27 40 36 36 40 56 82 83 79
125 169 167 167 135 121 100 81 64 55 48 39 27 9 9 8 5 344 350 345 347 345 351 350 357 360 357 26 23 43 88 116 119
149 173 142 123 113 105 95 87 76 64 54 43 34 24 13 1 352 337 337 334 333 335 339 337 334 326 328 316 3 314 175 155 141
184 151 135 122 108 98 84 76 71 62 56 48 41 35 28 19 2 343 336 334 330 330 332 336 336 324 304 289 286 286 264 237 216
164 155 140 125 112 100 91 77 63 57 53 46 37 29 25 21 15 3 355 343 331 326 323 325 332 330 315 290 273 269 261 264 259
167 155 147 137 125 109 85 70 57 46 38 30 24 20 18 17 15 10 7 356 346 333 332 325 319 336 319 307 291 267 263 258 259
170 163 158 151 138 116 85 56 35 22 16 12 8 7 7 6 6 1 356 355 352 345 332 321 32 25 343 320 309 296 270 260 259
178 175 173 173 165 149 20 358 358 0 358 0 356 354 354 355 354 352 348 345 344 343 339 327 298 278 290 305 309 303 297 272 259
187 190 195 200 219 272 308 323 335 341 344 353 346 345 342 342 340 339 337 338 336 335 332 326 319 306 299 297 294 287 285 284 271
197 205 214 224 250 281 299 302 306 320 327 332 332 328 325 325 327 326 331 350 342 327 319 317 313 308 302 296 290 291 290 283 277
209 217 227 240 259 279 287 289 299 307 314 321 318 313 312 313 316 296 314 327 320 307 300 303 304 302 294 287 285 282 279 279 275
218 226 237 245 257 274 290 297 300 305 309 320 308 309 299 305 291 231 317 308 310 306 302 300 299 298 296 287 282 279 276 271 270
228 236 243 254 269 281 286 290 290 291 295 299 310 312 310 291 249 281 296 297 297 302 300 297 297 295 292 287 283 278 276 271 267
238 245 252 260 269 277 283 284 286 280 280 286 284 303 293 298 297 289 292 293 294 292 295 290 293 292 290 289 287 281 275 272 269
245 251 259 264 271 275 277 279 279 278 273 273 279 271 284 288 292 289 289 292 286 288 291 289 287 286 285 285 287 283 280 273 268
255 259 263 267 270 273 272 276 275 272 266 266 271 278 281 280 283 291 292 286 286 289 287 287 287 284 280 282 284 285 281 275 269
Wind_Speed_850mb
16 14 12 14 14 15 17 17 15 14 13 12 13 17 21 28 26 28 29 27 29 30 27 21 19 25 24 22 17 13 12 12 12
17 16 13 13 11 13 15 16 17 16 13 10 11 13 19 23 26 27 28 26 20 24 25 24 20 14 19 21 20 19 13 11 10
7 7 8 7 6 7 10 13 14 14 13 11 10 13 19 21 24 24 24 24 22 19 19 22 21 17 10 13 15 16 19 17 13
4 3 2 2 2 3 5 8 10 11 11 10 12 13 13 17 18 19 20 19 19 18 17 15 19 16 14 7 9 12 11 15 16
2 2 2 2 3 3 4 6 7 8 9 9 9 11 12 11 12 14 15 17 19 18 16 15 10 14 12 10 7 8 11 12 9
11 4 3 3 4 4 5 6 6 8 8 8 9 10 11 11 11 12 12 15 16 18 16 15 11 9 7 8 6 5 7 10 11
9 4 5 8 11 12 14 15 14 14 15 16 16 15 16 16 16 18 17 16 17 18 18 15 13 11 8 6 4 1 2 4 9
8 8 12 15 17 18 18 18 19 21 22 24 25 25 23 20 18 20 20 18 17 15 15 16 15 13 11 9 8 7 7 8 9
13 14 17 19 19 17 17 18 20 22 24 25 26 29 29 27 24 23 20 19 17 15 14 13 16 15 14 12 12 12 13 13 14
17 19 19 18 17 14 13 15 16 17 20 24 27 29 30 30 31 31 28 23 19 15 12 12 12 16 17 15 15 18 17 17 17
19 21 19 15 12 8 7 8 10 15 20 24 27 30 31 32 33 35 34 29 25 21 13 7 7 11 15 16 17 17 18 21 22
20 21 18 12 7 2 2 7 13 18 22 21 24 27 28 30 32 33 31 30 27 23 20 16 14 17 17 18 19 18 17 18 23
22 20 16 11 7 5 8 10 13 16 18 15 20 25 30 31 32 32 30 27 24 24 20 19 19 20 22 24 22 20 22 20 19
23 21 18 14 11 11 13 16 15 14 18 21 20 23 31 32 30 27 20 21 29 29 27 23 25 29 31 28 28 28 26 22 20
25 24 20 17 15 16 18 18 22 25 30 29 24 22 26 30 30 18 10 33 39 33 34 39 45 44 39 38 37 33 30 28 26
26 25 23 21 19 19 20 25 28 24 33 27 24 27 20 19 17 14 19 30 33 40 40 41 45 45 45 43 43 44 40 38 35
27 26 25 23 23 26 28 30 28 27 35 22 26 21 31 12 9 21 32 24 28 30 30 36 39 45 46 48 45 47 48 48 46
26 27 27 30 32 34 37 38 39 29 26 26 20 21 27 36 33 26 35 31 30 32 35 33 36 40 42 49 49 48 47 50 51
29 32 34 37 41 42 43 44 43 40 28 25 23 24 30 33 39 40 42 44 41 39 38 38 37 37 37 44 54 52 50 49 51
33 36 40 43 45 45 43 41 39 35 28 27 27 29 30 35 43 56 47 43 45 46 40 40 41 39 39 40 47 56 52 52 52
Wind_Direction_850mb
102 103 102 91 82 78 74 69 72 83 93 89 62 48 49 58 58 58 51 60 57 52 61 67 68 65 63 70 72 99 113 100 99
104 113 104 98 84 75 73 70 69 78 89 85 62 48 47 60 60 56 51 53 60 65 56 59 65 72 65 62 63 73 101 119 118
110 125 110 101 79 59 58 64 69 71 72 73 57 46 59 58 57 55 47 45 44 47 53 51 53 57 70 67 69 63 70 85 100
165 151 105 88 68 64 64 63 67 69 65 52 47 45 43 55 55 47 41 35 31 35 35 45 48 44 46 61 70 70 72 72 78
162 151 150 127 133 113 83 70 59 55 48 38 30 29 18 18 27 19 12 9 9 9 15 21 27 40 36 36 40 56 82 83 79
125 169 167 167 135 121 100 81 64 55 48 39 27 9 9 8 5 344 350 345 347 345 351 350 357 360 357 26 23 43 88 116 119
149 173 142 123 113 105 95 87 76 64 54 43 34 24 13 1 352 337 337 334 333 335 339 337 334 326 328 316 3 314 175 155 141
184 151 135 122 108 98 84 76 71 62 56 48 41 35 28 19 2 343 336 334 330 330 332 336 336 324 304 289 286 286 264 237 216
164 155 140 125 112 100 91 77 63 57 53 46 37 29 25 21 15 3 355 343 331 326 323 325 332 330 315 290 273 269 261 264 259
167 155 147 137 125 109 85 70 57 46 38 30 24 20 18 17 15 10 7 356 346 333 332 325 319 336 319 307 291 267 263 258 259
170 163 158 151 138 116 85 56 35 22 16 12 8 7 7 6 6 1 356 355 352 345 332 321 32 25 343 320 309 296 270 260 259
178 175 173 173 165 149 20 358 358 0 358 0 356 354 354 355 354 352 348 345 344 343 339 327 298 278 290 305 309 303 297 272 259
187 190 195 200 219 272 308 323 335 341 344 353 346 345 342 342 340 339 337 338 336 335 332 326 319 306 299 297 294 287 285 284 271
197 205 214 224 250 281 299 302 306 320 327 332 332 328 325 325 327 326 331 350 342 327 319 317 313 308 302 296 290 291 290 283 277
209 217 227 240 259 279 287 289 299 307 314 321 318 313 312 313 316 296 314 327 320 307 300 303 304 302 294 287 285 282 279 279 275
218 226 237 245 257 274 290 297 300 305 309 320 308 309 299 305 291 231 317 308 310 306 302 300 299 298 296 287 282 279 276 271 270
228 236 243 254 269 281 286 290 290 291 295 299 310 312 310 291 249 281 296 297 297 302 300 297 297 295 292 287 283 278 276 271 267
238 245 252 260 269 277 283 284 286 280 280 286 284 303 293 298 297 289 292 293 294 292 295 290 293 292 290 289 287 281 275 272 269
245 251 259 264 271 275 277 279 279 278 273 273 279 271 284 288 292 289 289 292 286 288 291 289 287 286 285 285 287 283 280 273 268
255 259 263 267 270 273 272 276 275 272 266 266 271 278 281 280 283 291 292 286 286 289 287 287 287 284 280 282 284 285 281 275 269